This is the latest recevied weather packets stored in our database for station/object KD4EED. If no packets are shown the sender has not sent any weather packets the latest 10 day(s).
| Time | Temp. | Humidity | Pressure | Rain* | Wind** | Luminosity | Snow |
|---|---|---|---|---|---|---|---|
| 1777586654 | 23.33° C | 56% | 1008.7 hPa | - | - | 675 W/m² | - |
| 1777586350 | 23.33° C | 55% | 1008.8 hPa | - | - | 691 W/m² | - |
| 1777586049 | 22.78° C | 56% | 1008.9 hPa | - | - | 692 W/m² | - |
| 1777585748 | 22.78° C | 54% | 1009 hPa | - | - | 697 W/m² | - |
| 1777585448 | 22.78° C | 56% | 1009.2 hPa | - | - | 704 W/m² | - |
| 1777585144 | 22.78° C | 55% | 1009 hPa | - | - | 703 W/m² | - |
| 1777584839 | 22.78° C | 54% | 1009 hPa | - | - | 708 W/m² | - |
| 1777584537 | 22.78° C | 54% | 1009.1 hPa | - | - | 711 W/m² | - |
| 1777584234 | 22.78° C | 54% | 1009.2 hPa | - | - | 714 W/m² | - |
| 1777583933 | 22.78° C | 55% | 1009.3 hPa | - | - | 722 W/m² | - |
| 1777583629 | 22.78° C | 54% | 1009.1 hPa | - | - | 731 W/m² | - |
| 1777583328 | 22.78° C | 54% | 1009.2 hPa | - | - | 738 W/m² | - |
| 1777583023 | 22.78° C | 54% | 1009 hPa | - | - | 747 W/m² | - |
| 1777582720 | 22.78° C | 54% | 1009.1 hPa | - | - | 753 W/m² | - |
| 1777582415 | 22.78° C | 54% | 1009.1 hPa | - | - | 758 W/m² | - |
| 1777582115 | 22.78° C | 54% | 1009.3 hPa | - | - | 764 W/m² | - |
| 1777581815 | 22.78° C | 54% | 1009.1 hPa | - | - | 768 W/m² | - |
| 1777581513 | 22.78° C | 54% | 1009.2 hPa | - | - | 775 W/m² | - |
| 1777581210 | 22.78° C | 55% | 1009.3 hPa | - | - | 775 W/m² | - |
| 1777580904 | 22.78° C | 53% | 1009.3 hPa | - | - | 778 W/m² | - |
| 1777580604 | 22.78° C | 54% | 1009.3 hPa | - | - | 785 W/m² | - |
| 1777580300 | 23.33° C | 54% | 1009.2 hPa | - | - | 787 W/m² | - |
| 1777579997 | 23.33° C | 55% | 1009.2 hPa | - | - | 790 W/m² | - |
| 1777579692 | 23.33° C | 54% | 1009.3 hPa | - | - | 789 W/m² | - |
| 1777579391 | 23.33° C | 53% | 1009.4 hPa | - | - | 788 W/m² | - |
* Rain since midnight (hover to see other rain measurements)
** Current wind speed in m/s (hover to see current wind gust speed)